Regional Weather Roundup
Issued by NWS

Home | Current Version | Previous Version | Graphics & Text | Print | Product List | Glossary On
Versions: 1 2 3 4 5 6 7 8 9 10 11 12 13 14 15 16 17 18 19 20 21 22 23 24 25 26 27 28 29 30 31 32 33 34 35 36 37 38 39 40 41 42 43 44 45 46 47 48 49 50
000
ASUS45 KABQ 040801
RWRNM
WEATHER ROUNDUP FOR NEW MEXICO
NATIONAL WEATHER SERVICE ALBUQUERQUE NM
100 AM MST WED MAR 04 2015

NOTE: "FAIR" MEANS FEW OR NO CLOUDS BELOW 12,000 FEET AGL WITH NO
       SIGNIFICANT WEATHER OR OBSTRUCTIONS TO VISION.

      THIS PRODUCT IS RELEASED AS TWO VERSIONS.  ONE VERSION NEAR
      THE TOP OF THE HOUR CONTAINING PRELIMINARY DATA FROM ALBUQUERQUE
      AND OTHER STATIONS.  A FINAL VERSION WITH ADDITIONAL DATA IS
      ISSUED ABOUT 10 MINUTES AFTER THE HOUR.

NMZ501-503-504-510>518-040900-
NORTHWEST PLATEAU/NORTHCENTRAL MOUNTAINS

CITY           SKY/WX    TMP DP  RH WIND       PRES   REMARKS
FARMINGTON     MOCLDY    30  27  88 CALM      29.87S
SANTA FE       CLEAR     31  20  63 CALM      29.86S
TAOS           PTCLDY    25  18  74 SW8       29.86S WCI  16
ANGEL FIRE     CLOUDY    28  19  70 SW14G20   29.83F WCI  16

$$
NMZ402-403-502-505>509-040900-
WESTCENTRAL MOUNTAINS/SOUTHWEST MOUNTAINS

CITY           SKY/WX    TMP DP  RH WIND       PRES   REMARKS
GALLUP         CLEAR     31  27  85 CALM      29.89S
SILVER CITY    CLEAR     36  27  69 N12       29.88S WCI  27

$$
NMZ407-409-411-412-040900-
SOUTHERN DESERTS

CITY           SKY/WX    TMP DP  RH WIND       PRES   REMARKS
DEMING         CLEAR     42  37  82 SW7       29.86S
ALAMOGORDO     PTCLDY    50  43  76 S9G22     29.85S
T OR C         CLEAR     40  26  57 W7        29.85R

$$
NMZ519>523-040900-
CENTRAL VALLEYS/CENTRAL HIGHLANDS

CITY           SKY/WX    TMP DP  RH WIND       PRES   REMARKS
ALBUQUERQUE    PTCLDY    39  27  62 N8        29.88S WCI  33
DOUBLE EAGLE   CLEAR     31  26  81 NW8       29.88S WCI  24
CLINES CORNERS CLEAR     28  20  71 NW12      29.84F WCI  18
BELEN          FAIR      36  24  63 NW5       29.88S WCI  32
SOCORRO        NOT AVBL

$$
NMZ524>526-539-540-040900-
SOUTHCENTRAL MOUNTAINS

CITY           SKY/WX    TMP DP  RH WIND       PRES   REMARKS
RUIDOSO        NOT AVBL

$$
NMZ527>531-040900-
NORTHEAST HIGHLANDS/NORTHEAST PLAINS

CITY           SKY/WX    TMP DP  RH WIND       PRES   REMARKS
LAS VEGAS      PTCLDY    28  17  63 SW10      29.83S WCI  19
RATON          FOG       26  25  96 SW10      29.81S VSB 1/4 WCI  16
CLAYTON        FOG       26  25  96 E8        29.89R VSB 1   WCI  18

$$
NMZ532>537-040900-
EASTCENTRAL PLAINS

CITY           SKY/WX    TMP DP  RH WIND       PRES   REMARKS
TUCUMCARI      CLOUDY    34  31  88 NE17      29.89R WCI  23
CANNON AFB     CLOUDY    44  40  87 W6        29.83R
CLOVIS AIRPORT CLOUDY    43  39  87 SW8       29.82S

$$
NMZ028-029-538-040900-
SOUTHEAST PLAINS

CITY           SKY/WX    TMP DP  RH WIND       PRES   REMARKS
ROSWELL        CLOUDY    48  41  76 W3        29.82F
ARTESIA        CLOUDY    48  46  93 S9        29.84R
CARLSBAD       CLOUDY    54  43  66 S13       29.81F
HOBBS          MOCLDY    50  50 100 SW8       29.87S


$$



USA.gov is the U.S. government's official web portal to all federal, state and local government web resources and services.